Date String (YYYY-MM-DD hh:mm:ss) UTC,Instrument flags,Ambient pressure (hPa),Sample flow (lpm),Bypass flow (lpm),Sample temperature (°C),Ambient temperature (°C),ASC tube jacket temperature (°C),LED temperature (°C),Box temperature (°C),Sample RH (%),Span deviation,Mass concentration (μg/m³),Mass concentration (μg/m³),Mass concentration (μg/m³)
DateTimeUTC,F1_M11,P_M11,Q1_M11,Q2_M11,T1_M11,T2_M11,T3_M11,T4_M11,T5_M11,U1_M11,ZSPAN_M11,X0_M11,X2_M11,X1_M11
2022-08-04 12:00:00,,0828.7,5.00,0.00,29.8,27.9,00.0,38.6,31.6,28.9,0001.2,0014.72,0009.05,0008.15
2022-08-04 12:01:00,,0828.9,5.00,0.00,29.8,28.0,00.0,38.6,31.6,29.0,0000.9,0015.06,0009.05,0008.16
2022-08-04 12:02:00,,0829.0,5.01,0.00,29.8,28.1,00.0,38.6,31.6,29.0,0000.7,0014.96,0009.07,0008.15
2022-08-04 12:03:00,,0829.2,5.00,0.00,29.8,28.2,00.0,38.6,31.6,29.1,0000.6,0014.71,0009.06,0008.15
2022-08-04 12:04:00,,0829.2,5.00,0.00,29.8,28.3,00.0,38.6,31.7,29.1,0000.6,0014.99,0009.12,0008.17
2022-08-04 12:05:00,,0829.1,4.99,0.00,29.8,28.4,00.0,38.6,31.7,29.1,0000.5,0015.43,0009.12,0008.18
2022-08-04 12:06:00,,0829.2,5.00,0.00,29.8,28.5,00.0,38.6,31.7,29.3,0000.6,0015.55,0009.12,0008.20
2022-08-04 12:07:00,,0829.2,5.00,0.00,29.8,28.6,00.0,38.6,31.7,29.3,0000.6,0015.25,0009.14,0008.21
2022-08-04 12:08:00,,0828.9,5.00,0.00,29.8,28.6,00.0,38.6,31.7,29.4,0000.7,0015.39,0009.18,0008.22
2022-08-04 12:09:00,,0828.7,5.00,0.00,29.8,28.7,00.0,38.6,31.7,29.5,0001.1,0015.56,0009.20,0008.24
2022-08-04 12:10:00,,0828.7,5.00,0.00,29.8,28.7,00.0,38.6,31.7,29.4,0001.0,0015.58,0009.21,0008.24
2022-08-04 12:11:00,,0828.7,5.01,0.00,29.9,28.8,00.0,38.7,31.8,29.5,0000.7,0015.38,0009.24,0008.26
2022-08-04 12:12:00,,0828.7,5.00,0.00,29.9,28.8,00.0,38.7,31.8,29.4,0000.8,0014.88,0009.23,0008.27
2022-08-04 12:13:00,,0828.7,5.00,0.00,29.9,28.9,00.0,38.7,31.8,29.4,0000.4,0015.35,0009.22,0008.29
2022-08-04 12:14:00,,0828.7,5.00,0.00,29.9,28.9,00.0,38.7,31.9,29.2,0000.7,0015.33,0009.24,0008.31
2022-08-04 12:15:00,,0828.7,5.00,0.00,30.0,28.9,00.0,38.7,31.9,29.2,0000.9,0015.46,0009.22,0008.31
2022-08-04 12:16:00,,0828.7,5.01,0.00,30.0,29.0,00.0,38.7,31.9,28.7,0000.8,0014.95,0009.20,0008.31
2022-08-04 12:17:00,,0828.7,5.00,0.00,30.0,29.0,00.0,38.7,31.9,28.3,0000.8,0015.00,0009.18,0008.31
2022-08-04 12:18:00,,0828.7,5.00,0.00,30.0,29.0,00.0,38.7,32.0,27.8,0000.3,0015.30,0009.16,0008.30
2022-08-04 12:19:00,,0828.8,5.00,0.00,30.0,29.0,00.0,38.8,32.0,27.7,0000.0,0015.14,0009.13,0008.29
2022-08-04 12:20:00,,0828.7,5.01,0.00,30.1,29.1,00.0,38.8,32.0,27.5,-000.1,0015.00,0009.07,0008.26
2022-08-04 12:21:00,,0828.7,5.01,0.00,30.1,29.1,00.0,38.8,32.0,27.2,0000.3,0014.88,0009.01,0008.24
2022-08-04 12:22:00,,0828.9,4.99,0.00,30.1,29.1,00.0,38.8,32.0,27.1,0000.4,0014.76,0008.95,0008.22
2022-08-04 12:23:00,,0829.4,4.99,0.00,30.1,29.1,00.0,38.8,32.1,26.9,0000.5,0014.74,0008.93,0008.18
2022-08-04 12:24:00,,0829.3,5.00,0.00,30.1,29.1,00.0,38.8,32.0,27.0,0001.0,0014.56,0008.91,0008.15
2022-08-04 12:25:00,,0829.4,5.00,0.00,30.1,28.3,00.0,38.8,31.9,27.0,0001.0,0014.60,0008.86,0008.10
2022-08-04 12:26:00,,0829.3,5.01,0.00,30.0,27.8,00.0,38.8,31.7,27.1,0001.0,0014.19,0008.85,0008.08
2022-08-04 12:27:00,,0829.3,5.01,0.00,30.0,27.7,00.0,38.8,31.6,27.2,0000.8,0014.27,0008.82,0008.05
2022-08-04 12:28:00,,0829.3,5.00,0.00,29.9,27.7,00.0,38.7,31.6,27.3,0000.8,0013.91,0008.78,0008.01
2022-08-04 12:29:00,,0829.2,5.00,0.00,29.9,27.8,00.0,38.7,31.6,27.6,0001.0,0013.51,0008.80,0008.01
2022-08-04 12:30:00,,0829.2,5.00,0.00,29.8,27.9,00.0,38.7,31.6,27.6,0001.2,0013.94,0008.85,0008.02
2022-08-04 12:31:00,,0829.3,5.00,0.00,29.8,28.0,00.0,38.7,31.6,27.6,0001.3,0013.80,0008.86,0008.02
2022-08-04 12:32:00,,0829.1,5.02,0.00,29.8,28.1,00.0,38.7,31.6,27.5,0001.0,0013.90,0008.89,0008.01
2022-08-04 12:33:00,,0829.2,5.00,0.00,29.8,28.2,00.0,38.7,31.6,27.5,0001.1,0014.01,0008.91,0008.00
2022-08-04 12:34:00,,0829.3,5.00,0.00,29.8,28.3,00.0,38.7,31.6,27.5,0001.0,0013.93,0008.93,0008.01
2022-08-04 12:35:00,,0829.3,5.00,0.00,29.8,28.4,00.0,38.7,31.7,27.5,0000.7,0013.83,0008.93,0008.02
2022-08-04 12:36:00,,0829.1,5.01,0.00,29.8,28.5,00.0,38.6,31.7,27.5,0000.8,0013.98,0008.94,0008.01
2022-08-04 12:37:00,,0829.3,5.00,0.00,29.8,28.6,00.0,38.6,31.7,27.5,0000.6,0014.02,0008.95,0008.00
2022-08-04 12:38:00,,0829.3,5.00,0.00,29.9,28.6,00.0,38.6,31.8,27.4,0000.9,0014.08,0008.97,0008.00
2022-08-04 12:39:00,,0829.2,4.99,0.00,29.9,28.7,00.0,38.7,31.7,27.4,0000.9,0014.35,0009.00,0008.02
2022-08-04 12:40:00,,0828.8,5.00,0.00,29.9,28.7,00.0,38.7,31.7,27.4,0000.8,0014.17,0009.00,0007.99
2022-08-04 12:41:00,,0828.7,5.01,0.00,29.9,28.8,00.0,38.7,31.8,27.4,0000.8,0013.61,0008.94,0007.97
2022-08-04 12:42:00,,0828.8,5.00,0.00,29.9,28.8,00.0,38.7,31.8,27.5,0000.6,0013.62,0008.90,0007.96
2022-08-04 12:43:00,,0828.7,5.00,0.00,29.9,28.8,00.0,38.7,31.8,27.9,0000.9,0013.56,0008.81,0007.95
2022-08-04 12:44:00,,0828.7,4.99,0.00,30.0,28.9,00.0,38.7,31.9,28.0,0000.5,0014.67,0008.77,0007.96
2022-08-04 12:45:00,,0829.0,4.99,0.00,30.0,28.9,00.0,38.7,31.9,28.0,0000.9,0015.75,0008.77,0007.95
2022-08-04 12:46:00,,0829.0,5.00,0.00,30.0,28.9,00.0,38.7,31.9,28.1,0001.0,0015.57,0008.76,0007.95
2022-08-04 12:47:00,,0829.1,5.00,0.00,30.0,29.0,00.0,38.7,31.9,28.2,0000.8,0016.16,0008.74,0007.96
2022-08-04 12:48:00,,0829.2,5.00,0.00,30.0,29.0,00.0,38.8,32.0,28.1,0000.9,0016.41,0008.73,0007.98
2022-08-04 12:49:00,,0828.9,4.99,0.00,30.0,29.0,00.0,38.8,32.0,28.1,0000.8,0016.85,0008.73,0008.01
2022-08-04 12:50:00,,0828.8,5.00,0.00,30.1,29.0,00.0,38.8,32.0,28.3,0000.6,0016.74,0008.74,0008.04
2022-08-04 12:51:00,,0828.7,5.00,0.00,30.1,29.1,00.0,38.8,32.0,28.3,0000.5,0016.57,0008.71,0008.07
2022-08-04 12:52:00,,0828.7,5.02,0.00,30.1,29.1,00.0,38.8,32.0,28.2,0000.8,0016.76,0008.73,0008.09
2022-08-04 12:53:00,,0828.7,5.00,0.00,30.1,29.1,00.0,38.8,32.0,28.3,0000.8,0017.01,0008.82,0008.11
2022-08-04 12:54:00,,0828.7,5.00,0.00,30.1,29.2,00.0,38.9,32.0,28.2,0000.7,0017.11,0008.92,0008.15
2022-08-04 12:55:00,,0828.7,5.00,0.00,30.1,28.8,00.0,38.8,32.0,28.0,0000.5,0016.82,0008.99,0008.18
2022-08-04 12:56:00,,0828.7,5.01,0.00,30.1,28.0,00.0,38.8,31.8,28.2,0000.0,0015.82,0008.99,0008.20
2022-08-04 12:57:00,,0828.7,5.00,0.00,30.0,27.5,00.0,38.8,31.7,28.4,-000.1,0016.55,0009.03,0008.23
2022-08-04 12:58:00,,0828.7,5.00,0.00,29.9,27.4,00.0,38.7,31.6,28.6,-000.1,0016.22,0009.07,0008.26
2022-08-04 12:59:00,,0828.7,5.00,0.00,29.9,27.5,00.0,38.7,31.5,28.8,-000.2,0015.95,0009.12,0008.28
